| time (UTC) | temp C | wind direction | speed KPH | gust KPH | rain 1hr cm | rain 24hr cm | rain mn cm | humidity % | barometer mb |
| 20260901083038 | 10 | 250 | 8.0 | 24.1 | 0.00 | 0.00 | 0.00 | 58 | 1004.3 |
| 20260901081535 | 10 | 241 | 4.8 | 25.7 | 0.00 | 0.00 | 0.00 | 57 | 1004.4 |
| 20260901080035 | 10 | 277 | 6.4 | 22.5 | 0.00 | 0.00 | 0.00 | 58 | 1004.6 |
| 20260901074533 | 11 | 236 | 4.8 | 14.5 | 0.00 | 0.00 | 0.00 | 58 | 1004.7 |
| 20260901073027 | 11 | 254 | 3.2 | 9.7 | 0.00 | 0.00 | 0.00 | 58 | 1004.7 |
| 20260901071529 | 11 | 257 | 4.8 | 14.5 | 0.00 | 0.00 | 0.00 | 57 | 1004.8 |
| 20260901070027 | 11 | 275 | 6.4 | 25.7 | 0.00 | 0.00 | 0.00 | 57 | 1004.7 |
| 20260901064527 | 11 | 269 | 12.9 | 25.7 | 0.00 | 0.00 | 0.00 | 56 | 1004.8 |
| 20260901063027 | 11 | 276 | 6.4 | 17.7 | 0.00 | 0.00 | 0.00 | 56 | 1004.7 |
| 20260901061526 | 11 | 235 | 6.4 | 22.5 | 0.00 | 0.00 | 0.00 | 56 | 1004.5 |
| 20260901060025 | 11 | 52 | 4.8 | 12.9 | 0.00 | 0.00 | 0.00 | 55 | 1004.8 |
| 20260901054525 | 11 | 233 | 8.0 | 24.1 | 0.00 | 0.00 | 0.00 | 55 | 1004.9 |
| 20260901053024 | 11 | 257 | 9.7 | 20.9 | 0.00 | 0.00 | 0.00 | 56 | 1004.9 |
| 20260901051524 | 11 | 284 | 6.4 | 27.4 | 0.00 | 0.00 | 0.00 | 55 | 1004.6 |
| 20260901050024 | 11 | 283 | 8.0 | 17.7 | 0.00 | 0.00 | 0.00 | 56 | 1004.4 |
| 20260901044523 | 11 | 218 | 8.0 | 17.7 | 0.00 | 0.00 | 0.00 | 56 | 1004.3 |
| 20260901043028 | 11 | 246 | 9.7 | 29.0 | 0.00 | 0.00 | 0.00 | 55 | 1004.2 |
| 20260901041523 | 11 | 202 | 11.3 | 33.8 | 0.00 | 0.00 | 0.00 | 55 | 1004.5 |
| 20260901040023 | 11 | 280 | 9.7 | 29.0 | 0.00 | 0.00 | 0.00 | 55 | 1004.3 |
| 20260901034522 | 11 | 179 | 6.4 | 24.1 | 0.00 | 0.00 | 0.00 | 55 | 1004.5 |
| 20260901033026 | 11 | 242 | 8.0 | 29.0 | 0.00 | 0.00 | 0.00 | 55 | 1004.5 |
| 20260901031530 | 11 | 132 | 9.7 | 22.5 | 0.00 | 0.00 | 0.00 | 56 | 1004.3 |
| 20260901030021 | 12 | 209 | 8.0 | 27.4 | 0.00 | 0.00 | 0.00 | 56 | 1004.1 |
| 20260901024521 | 12 | 230 | 8.0 | 32.2 | 0.00 | 0.00 | 0.00 | 55 | 1003.6 |
| 20260901023026 | 12 | 205 | 9.7 | 25.7 | 0.00 | 0.00 | 0.00 | 54 | 1003.8 |
| 20260901021521 | 13 | 226 | 4.8 | 20.9 | 0.00 | 0.00 | 0.00 | 55 | 1003.5 |
| 20260901020030 | 13 | 207 | 4.8 | 24.1 | 0.00 | 0.00 | 0.00 | 54 | 1003.3 |
| 20260901014522 | 13 | 223 | 4.8 | 25.7 | 0.00 | 0.00 | 0.00 | 52 | 1003.5 |
| 20260901013029 | 14 | 250 | 4.8 | 25.7 | 0.00 | 0.00 | 0.00 | 50 | 1003.4 |
| 20260901011517 | 15 | 184 | 4.8 | 19.3 | 0.00 | 0.00 | 0.00 | 48 | 1003.5 |
| 20260901010021 | 16 | 200 | 8.0 | 24.1 | 0.00 | 0.00 | 0.00 | 48 | 1003.6 |
| 20260901004518 | 16 | 227 | 4.8 | 24.1 | 0.00 | 0.00 | 0.00 | 47 | 1003.7 |
| 20260901003017 | 16 | 227 | 8.0 | 19.3 | 0.00 | 0.00 | 0.00 | 46 | 1003.9 |
| 20260901001523 | 17 | 202 | 8.0 | 29.0 | 0.00 | 0.00 | 0.00 | 43 | 1004.1 |
| 20260901000015 | 17 | 259 | 8.0 | 19.3 | 0.00 | 0.00 | 0.00 | 44 | 1004.0 |
| 20260831234515 | 17 | 279 | 12.9 | 40.2 | 0.00 | 0.00 | 0.00 | 43 | 1004.0 |
| 20260831233014 | 17 | 169 | 8.0 | 27.4 | 0.00 | 0.00 | 0.00 | 41 | 1004.1 |
| 20260831231515 | 17 | 272 | 8.0 | 24.1 | 0.00 | 0.00 | 0.00 | 40 | 1004.1 |
| 20260831230014 | 18 | 242 | 11.3 | 29.0 | 0.00 | 0.00 | 0.00 | 38 | 1004.1 |
| 20260831224513 | 18 | 269 | 6.4 | 29.0 | 0.00 | 0.00 | 0.00 | 38 | 1004.0 |
| 20260831223009 | 18 | 272 | 6.4 | 20.9 | 0.00 | 0.00 | 0.00 | 37 | 1004.1 |
| 20260831221509 | 18 | 231 | 9.7 | 37.0 | 0.00 | 0.00 | 0.00 | 37 | 1004.3 |
| 20260831220008 | 18 | 218 | 6.4 | 22.5 | 0.00 | 0.00 | 0.00 | 35 | 1004.2 |
| 20260831214507 | 19 | 270 | 11.3 | 32.2 | 0.00 | 0.00 | 0.00 | 35 | 1004.2 |
| 20260831213011 | 18 | 298 | 11.3 | 33.8 | 0.00 | 0.00 | 0.00 | 34 | 1004.4 |
| 20260831211508 | 19 | 287 | 6.4 | 25.7 | 0.00 | 0.00 | 0.00 | 33 | 1004.6 |
| 20260831210007 | 20 | 280 | 9.7 | 25.7 | 0.00 | 0.00 | 0.00 | 29 | 1004.5 |
| 20260831204507 | 20 | 265 | 6.4 | 22.5 | 0.00 | 0.00 | 0.00 | 30 | 1004.7 |
| 20260831203008 | 19 | 248 | 12.9 | 27.4 | 0.00 | 0.00 | 0.00 | 27 | 1004.8 |
| 20260831201510 | 20 | 306 | 8.0 | 33.8 | 0.00 | 0.00 | 0.00 | 27 | 1004.7 |
| 20260831200007 | 20 | 257 | 4.8 | 20.9 | 0.00 | 0.00 | 0.00 | 28 | 1004.8 |
| 20260831194507 | 20 | 232 | 9.7 | 22.5 | 0.00 | 0.00 | 0.00 | 27 | 1004.8 |
| 20260831193008 | 20 | 281 | 9.7 | 24.1 | 0.00 | 0.00 | 0.00 | 26 | 1005.0 |
| 20260831191504 | 20 | 320 | 9.7 | 24.1 | 0.00 | 0.00 | 0.00 | 26 | 1005.0 |
| 20260831190004 | 20 | 309 | 3.2 | 20.9 | 0.00 | 0.00 | 0.00 | 26 | 1005.1 |
| 20260831184504 | 20 | 237 | 1.6 | 9.7 | 0.00 | 0.00 | 0.00 | 26 | 1005.2 |
| 20260831183006 | 20 | 256 | 6.4 | 14.5 | 0.00 | 0.00 | 0.00 | 25 | 1005.2 |
| 20260831181502 | 20 | 300 | 3.2 | 12.9 | 0.00 | 0.00 | 0.00 | 27 | 1005.2 |
| 20260831180001 | 20 | 287 | 3.2 | 16.1 | 0.00 | 0.00 | 0.00 | 26 | 1005.1 |
| 20260831174603 | 20 | 305 | 3.2 | 11.3 | 0.00 | 0.00 | 0.00 | 25 | 1005.0 |
| 20260831173128 | 19 | 199 | 3.2 | 11.3 | 0.00 | 0.00 | 0.00 | 28 | 1005.0 |
| 20260831171557 | 18 | 182 | 1.6 | 16.1 | 0.00 | 0.00 | 0.00 | 28 | 1005.0 |
| 20260831170056 | 18 | 26 | 0.0 | 8.0 | 0.00 | 0.00 | 0.00 | 28 | 1004.9 |
| 20260831164606 | 18 | 90 | 3.2 | 11.3 | 0.00 | 0.00 | 0.00 | 31 | 1004.9 |
| 20260831163056 | 17 | 82 | 6.4 | 12.9 | 0.00 | 0.00 | 0.00 | 31 | 1004.8 |
| 20260831161553 | 17 | 76 | 4.8 | 9.7 | 0.00 | 0.00 | 0.00 | 32 | 1005.0 |
| 20260831160100 | 18 | 28 | 1.6 | 6.4 | 0.00 | 0.00 | 0.00 | 27 | 1005.1 |
| 20260831154548 | 17 | 132 | 0.0 | 8.0 | 0.00 | 0.00 | 0.00 | 30 | 1005.2 |
| 20260831153047 | 16 | 280 | 1.6 | 6.4 | 0.00 | 0.00 | 0.00 | 29 | 1005.2 |
| 20260831151545 | 15 | 269 | 1.6 | 12.9 | 0.00 | 0.00 | 0.00 | 31 | 1005.1 |
| 20260831150041 | 15 | 344 | 1.6 | 19.3 | 0.00 | 0.00 | 0.00 | 33 | 1005.1 |
| 20260831144537 | 13 | 30 | 6.4 | 16.1 | 0.00 | 0.00 | 0.00 | 35 | 1005.0 |
| 20260831143035 | 13 | 250 | 4.8 | 24.1 | 0.00 | 0.00 | 0.00 | 37 | 1004.9 |
| 20260831141533 | 12 | 254 | 8.0 | 17.7 | 0.00 | 0.00 | 0.00 | 39 | 1004.7 |
| 20260831140031 | -17 | 0.0 | 0.0 | 0.00 | 0.00 | 0.00 | 1004.2 | ||
| 20260831134528 | -17 | 0.0 | 0.0 | 0.00 | 0.00 | 0.00 | 1004.2 | ||
| 20260831133033 | -17 | 0.0 | 0.0 | 0.00 | 0.00 | 0.00 | 1004.1 | ||
| 20260831131519 | -17 | 0.0 | 0.0 | 0.00 | 0.00 | 0.00 | 1004.1 | ||
| 20260831130017 | -17 | 0.0 | 0.0 | 0.00 | 0.00 | 0.00 | 1004.2 | ||
| 20260831124533 | -17 | 0.0 | 0.0 | 0.00 | 0.00 | 0.00 | 1004.3 | ||
| 20260831123007 | -17 | 0.0 | 0.0 | 0.00 | 0.00 | 0.00 | 1004.4 | ||
| 20260831121503 | -17 | 0.0 | 0.0 | 0.00 | 0.00 | 0.00 | 1004.7 | ||
| 20260831120100 | -17 | 0.0 | 0.0 | 0.00 | 0.00 | 0.00 | 1005.0 | ||
| 20260831114558 | 12 | 183 | 1.6 | 19.3 | 0.00 | 0.00 | 0.00 | 41 | 1005.2 |
| 20260831113059 | 12 | 280 | 6.4 | 22.5 | 0.00 | 0.00 | 0.00 | 40 | 1005.2 |
| 20260831111612 | 12 | 272 | 6.4 | 17.7 | 0.00 | 0.00 | 0.00 | 40 | 1005.3 |
| 20260831110056 | 12 | 261 | 3.2 | 16.1 | 0.00 | 0.00 | 0.00 | 40 | 1005.4 |
| 20260831104605 | 12 | 268 | 3.2 | 16.1 | 0.00 | 0.00 | 0.00 | 40 | 1005.5 |
| 20260831103059 | 11 | 246 | 1.6 | 14.5 | 0.00 | 0.00 | 0.00 | 42 | 1005.5 |
| 20260831101555 | 8 | 271 | 0.0 | 4.8 | 0.00 | 0.00 | 0.00 | 56 | 1005.4 |
| 20260831100048 | 8 | 51 | 0.0 | 0.0 | 0.00 | 0.00 | 0.00 | 54 | 1005.5 |
| 20260831094603 | 8 | 277 | 0.0 | 4.8 | 0.00 | 0.00 | 0.00 | 59 | 1005.5 |
| 20260831093051 | 8 | 280 | 0.0 | 1.6 | 0.00 | 0.00 | 0.00 | 58 | 1005.6 |
| 20260831091549 | 8 | 275 | 0.0 | 3.2 | 0.00 | 0.00 | 0.00 | 56 | 1005.5 |
| 20260831090044 | 8 | 280 | 0.0 | 1.6 | 0.00 | 0.00 | 0.00 | 56 | 1005.6 |
| 20260831084541 | 9 | 279 | 0.0 | 1.6 | 0.00 | 0.00 | 0.00 | 53 | 1005.7 |